Data start date =,1/1/1959
Data end date/time =,5/2/2024 12:00
""
""
Date/Time,LockDam_09
,Flow
UTC,cfs
,Ave
1/2/1959 12:00,11300
1/3/1959 12:00,11300
1/4/1959 12:00,11200
1/5/1959 12:00,11100
1/6/1959 12:00,11000
1/7/1959 12:00,11000
1/8/1959 12:00,11000
1/9/1959 12:00,10300
1/10/1959 12:00,10400
1/11/1959 12:00,10500
1/12/1959 12:00,10600
1/13/1959 12:00,10700
1/14/1959 12:00,9800
1/15/1959 12:00,9900
1/16/1959 12:00,9900
1/17/1959 12:00,10000
1/18/1959 12:00,10000
1/19/1959 12:00,10000
1/20/1959 12:00,10000
1/21/1959 12:00,10100
1/22/1959 12:00,10100
1/23/1959 12:00,10100
1/24/1959 12:00,10100
1/25/1959 12:00,10100
1/26/1959 12:00,10100
1/27/1959 12:00,10300
1/28/1959 12:00,10700
1/29/1959 12:00,10100
1/30/1959 12:00,10200
1/31/1959 12:00,10100
2/1/1959 12:00,10100
2/2/1959 12:00,10100
2/3/1959 12:00,10100
2/4/1959 12:00,10100
2/5/1959 12:00,9600
2/6/1959 12:00,9700
2/7/1959 12:00,9700
2/8/1959 12:00,9700
2/9/1959 12:00,9400
2/10/1959 12:00,9500
2/11/1959 12:00,9600
2/12/1959 12:00,9700
2/13/1959 12:00,9800
2/14/1959 12:00,9900
2/15/1959 12:00,10700
2/16/1959 12:00,10600
2/17/1959 12:00,10600
2/18/1959 12:00,10600
2/19/1959 12:00,10600
2/20/1959 12:00,10600
2/21/1959 12:00,10600
2/22/1959 12:00,10700
2/23/1959 12:00,10700
2/24/1959 12:00,10700
2/25/1959 12:00,10700
2/26/1959 12:00,10800
2/27/1959 12:00,10900
2/28/1959 12:00,10900
3/1/1959 12:00,10900
3/2/1959 12:00,11900
3/3/1959 12:00,11700
3/4/1959 12:00,11600
3/5/1959 12:00,12300
3/6/1959 12:00,13000
3/7/1959 12:00,13200
3/8/1959 12:00,11400
3/9/1959 12:00,12500
3/10/1959 12:00,12300
3/11/1959 12:00,12200
3/12/1959 12:00,12000
3/13/1959 12:00,12700
3/14/1959 12:00,13300
3/15/1959 12:00,14200
3/16/1959 12:00,13600
3/17/1959 12:00,13500
3/18/1959 12:00,13600
3/19/1959 12:00,16900
3/20/1959 12:00,15800
3/21/1959 12:00,17200
3/22/1959 12:00,22500
3/23/1959 12:00,24100
3/24/1959 12:00,28900
3/25/1959 12:00,36700
3/26/1959 12:00,42000
3/27/1959 12:00,43800
3/28/1959 12:00,46000
3/29/1959 12:00,43000
3/30/1959 12:00,41500
3/31/1959 12:00,48000
4/1/1959 12:00,61000
4/2/1959 12:00,64000
4/3/1959 12:00,65000
4/4/1959 12:00,63000
4/5/1959 12:00,55000
4/6/1959 12:00,47500
4/7/1959 12:00,38200
4/8/1959 12:00,24700
4/9/1959 12:00,19900
4/10/1959 12:00,23500
4/11/1959 12:00,24500
4/12/1959 12:00,24000
4/13/1959 12:00,22400
4/14/1959 12:00,19800
4/15/1959 12:00,19400
4/16/1959 12:00,17600
4/17/1959 12:00,19100
4/18/1959 12:00,22100
4/19/1959 12:00,24100
4/20/1959 12:00,26700
4/21/1959 12:00,29900
4/22/1959 12:00,27400
4/23/1959 12:00,25200
4/24/1959 12:00,23000
4/25/1959 12:00,22000
4/26/1959 12:00,20200
4/27/1959 12:00,19800
4/28/1959 12:00,19900
4/29/1959 12:00,18000
4/30/1959 12:00,17100
5/1/1959 12:00,16600
5/2/1959 12:00,16200
5/3/1959 12:00,16300
5/4/1959 12:00,16200
5/5/1959 12:00,16300
5/6/1959 12:00,28300
5/7/1959 12:00,35700
5/8/1959 12:00,44500
5/9/1959 12:00,46700
5/10/1959 12:00,47200
5/11/1959 12:00,48100
5/12/1959 12:00,44900
5/13/1959 12:00,43100
5/14/1959 12:00,39100
5/15/1959 12:00,36500
5/16/1959 12:00,30900
5/17/1959 12:00,31400
5/18/1959 12:00,31600
5/19/1959 12:00,27700
5/20/1959 12:00,29600
5/21/1959 12:00,37800
5/22/1959 12:00,27200
5/23/1959 12:00,24000
5/24/1959 12:00,18300
5/25/1959 12:00,19900
5/26/1959 12:00,21900
5/27/1959 12:00,24900
5/28/1959 12:00,33800
5/29/1959 12:00,35700
5/30/1959 12:00,42600
5/31/1959 12:00,42100
6/1/1959 12:00,40100
6/2/1959 12:00,36800
6/3/1959 12:00,35400
6/4/1959 12:00,34900
6/5/1959 12:00,38500
6/6/1959 12:00,40000
6/7/1959 12:00,40800
6/8/1959 12:00,42200
6/9/1959 12:00,40800
6/10/1959 12:00,39300
6/11/1959 12:00,36000
6/12/1959 12:00,34500
6/13/1959 12:00,33000
6/14/1959 12:00,26100
6/15/1959 12:00,20000
6/16/1959 12:00,16000
6/17/1959 12:00,17100
6/18/1959 12:00,17300
6/19/1959 12:00,16600
6/20/1959 12:00,14800
6/21/1959 12:00,14700
6/22/1959 12:00,14000
6/23/1959 12:00,12900
6/24/1959 12:00,14300
6/25/1959 12:00,19600
6/26/1959 12:00,37000
6/27/1959 12:00,43300
6/28/1959 12:00,40500
6/29/1959 12:00,30000
6/30/1959 12:00,26800
7/1/1959 12:00,28900
7/2/1959 12:00,24600
7/3/1959 12:00,23400
7/4/1959 12:00,24000
7/5/1959 12:00,24200
7/6/1959 12:00,22700
7/7/1959 12:00,19300
7/8/1959 12:00,19500
7/9/1959 12:00,27700
7/10/1959 12:00,38700
7/11/1959 12:00,46400
7/12/1959 12:00,47000
7/13/1959 12:00,46500
7/14/1959 12:00,46300
7/15/1959 12:00,45500
7/16/1959 12:00,35700
7/17/1959 12:00,23000
7/18/1959 12:00,20000
7/19/1959 12:00,20200
7/20/1959 12:00,21800
7/21/1959 12:00,19200
7/22/1959 12:00,18100
7/23/1959 12:00,17200
7/24/1959 12:00,16800
7/25/1959 12:00,16000
7/26/1959 12:00,15600
7/27/1959 12:00,15200
7/28/1959 12:00,15200
7/29/1959 12:00,13700
7/30/1959 12:00,12300
7/31/1959 12:00,11800
8/1/1959 12:00,10600
8/2/1959 12:00,10500
8/3/1959 12:00,24600
8/4/1959 12:00,20400
8/5/1959 12:00,14200
8/6/1959 12:00,11600
8/7/1959 12:00,11200
8/8/1959 12:00,10500
8/9/1959 12:00,10500
8/10/1959 12:00,9800
8/11/1959 12:00,9700
8/12/1959 12:00,10600
8/13/1959 12:00,10900
8/14/1959 12:00,11600
8/15/1959 12:00,13600
8/16/1959 12:00,15900
8/17/1959 12:00,18200
8/18/1959 12:00,18100
8/19/1959 12:00,15600
8/20/1959 12:00,13400
8/21/1959 12:00,13600
8/22/1959 12:00,17000
8/23/1959 12:00,28000
8/24/1959 12:00,34500
8/25/1959 12:00,33700
8/26/1959 12:00,26800
8/27/1959 12:00,42000
8/28/1959 12:00,45000
8/29/1959 12:00,36600
8/30/1959 12:00,34000
8/31/1959 12:00,34200
9/1/1959 12:00,34800
9/2/1959 12:00,39500
9/3/1959 12:00,41900
9/4/1959 12:00,44500
9/5/1959 12:00,33700
9/6/1959 12:00,31900
9/7/1959 12:00,30100
9/8/1959 12:00,29200
9/9/1959 12:00,28900
9/10/1959 12:00,28200
9/11/1959 12:00,27800
9/12/1959 12:00,25800
9/13/1959 12:00,21800
9/14/1959 12:00,19500
9/15/1959 12:00,21400
9/16/1959 12:00,19300
9/17/1959 12:00,18100
9/18/1959 12:00,17100
9/19/1959 12:00,13800
9/20/1959 12:00,15200
9/21/1959 12:00,17400
9/22/1959 12:00,31400
9/23/1959 12:00,43200
9/24/1959 12:00,43900
9/25/1959 12:00,45200
9/26/1959 12:00,50100
9/27/1959 12:00,52700
9/28/1959 12:00,50100
9/29/1959 12:00,49700
9/30/1959 12:00,49000
10/1/1959 12:00,48800
10/2/1959 12:00,50600
10/3/1959 12:00,52400
10/4/1959 12:00,48700
10/5/1959 12:00,44300
10/6/1959 12:00,34100
10/7/1959 12:00,31500
10/8/1959 12:00,35000
10/9/1959 12:00,34500
10/10/1959 12:00,27800
10/11/1959 12:00,25500
10/12/1959 12:00,26100
10/13/1959 12:00,26500
10/14/1959 12:00,26300
10/15/1959 12:00,24600
10/16/1959 12:00,24800
10/17/1959 12:00,24400
10/18/1959 12:00,23100
10/19/1959 12:00,21600
10/20/1959 12:00,21200
10/21/1959 12:00,21200
10/22/1959 12:00,21300
10/23/1959 12:00,24000
10/24/1959 12:00,26800
10/25/1959 12:00,32300
10/26/1959 12:00,35400
10/27/1959 12:00,37100
10/28/1959 12:00,36300
10/29/1959 12:00,36300
10/30/1959 12:00,35800
10/31/1959 12:00,31500
11/1/1959 12:00,29000
11/2/1959 12:00,25100
11/3/1959 12:00,25200
11/4/1959 12:00,32900
11/5/1959 12:00,40200
11/6/1959 12:00,35700
11/7/1959 12:00,27500
11/8/1959 12:00,27300
11/9/1959 12:00,26100
11/10/1959 12:00,21800
11/11/1959 12:00,20000
11/12/1959 12:00,21200
11/13/1959 12:00,23900
11/14/1959 12:00,23200
11/15/1959 12:00,22300
11/16/1959 12:00,16000
11/17/1959 12:00,14800
11/18/1959 12:00,15000
11/19/1959 12:00,15300
11/20/1959 12:00,15700
11/21/1959 12:00,16100
11/22/1959 12:00,17500
11/23/1959 12:00,22800
11/24/1959 12:00,24800
11/25/1959 12:00,24000
11/26/1959 12:00,22000
11/27/1959 12:00,19600
11/28/1959 12:00,16300
11/29/1959 12:00,15200
11/30/1959 12:00,16800
12/1/1959 12:00,18100
12/2/1959 12:00,18100
12/3/1959 12:00,18200
12/4/1959 12:00,18200
12/5/1959 12:00,18000
12/6/1959 12:00,17900
12/7/1959 12:00,19600
12/8/1959 12:00,18400
12/9/1959 12:00,17100
12/10/1959 12:00,16800
12/11/1959 12:00,16200
12/12/1959 12:00,16100
12/13/1959 12:00,15800
12/14/1959 12:00,15100
12/15/1959 12:00,15200
12/16/1959 12:00,15400
12/17/1959 12:00,15600
12/18/1959 12:00,17500
12/19/1959 12:00,17400
12/20/1959 12:00,19900
12/21/1959 12:00,18200
12/22/1959 12:00,18100
12/23/1959 12:00,18000
12/24/1959 12:00,16600
12/25/1959 12:00,15000
12/26/1959 12:00,15500
12/27/1959 12:00,18400
12/28/1959 12:00,27800
12/29/1959 12:00,39900
12/30/1959 12:00,42800
12/31/1959 12:00,42400
1/1/1960 12:00,41500
1/2/1960 12:00,40900
1/3/1960 12:00,28600
1/4/1960 12:00,24200
1/5/1960 12:00,20000
1/6/1960 12:00,18600
1/7/1960 12:00,19000
1/8/1960 12:00,20100
1/9/1960 12:00,20200
1/10/1960 12:00,20400
1/11/1960 12:00,20500
1/12/1960 12:00,23800
1/13/1960 12:00,27800
1/14/1960 12:00,22800
1/15/1960 12:00,20200
1/16/1960 12:00,20600
1/17/1960 12:00,21600
1/18/1960 12:00,22100
1/19/1960 12:00,20100
1/20/1960 12:00,18500
1/21/1960 12:00,17700
1/22/1960 12:00,17600
1/23/1960 12:00,17600
1/24/1960 12:00,17600
1/25/1960 12:00,14600
1/26/1960 12:00,15200
1/27/1960 12:00,15200
1/28/1960 12:00,14100
1/29/1960 12:00,14100
1/30/1960 12:00,14500
1/31/1960 12:00,14600
2/1/1960 12:00,15000
2/2/1960 12:00,15300
2/3/1960 12:00,15000
2/4/1960 12:00,14300
2/5/1960 12:00,14300
2/6/1960 12:00,14500
2/7/1960 12:00,14900
2/8/1960 12:00,16700
2/9/1960 12:00,16800
2/10/1960 12:00,16500
2/11/1960 12:00,15800
2/12/1960 12:00,14800
2/13/1960 12:00,15000
2/14/1960 12:00,14800
2/15/1960 12:00,14600
2/16/1960 12:00,13000
2/17/1960 12:00,13300
2/18/1960 12:00,13300
2/19/1960 12:00,13400
2/20/1960 12:00,13400
2/21/1960 12:00,13500
2/22/1960 12:00,14000
2/23/1960 12:00,14200
2/24/1960 12:00,14300
2/25/1960 12:00,14500
2/26/1960 12:00,14800
2/27/1960 12:00,14500
2/28/1960 12:00,14300
2/29/1960 12:00,14200
3/1/1960 12:00,14300
3/2/1960 12:00,14500
3/3/1960 12:00,15500
3/4/1960 12:00,15400
3/5/1960 12:00,15200
3/6/1960 12:00,15100
3/7/1960 12:00,14800
3/8/1960 12:00,13800
3/9/1960 12:00,13700
3/10/1960 12:00,13900
3/11/1960 12:00,15200
3/12/1960 12:00,14600
3/13/1960 12:00,14400
3/14/1960 12:00,14300
3/15/1960 12:00,14300
3/16/1960 12:00,14700
3/17/1960 12:00,14900
3/18/1960 12:00,15800
3/19/1960 12:00,15500
3/20/1960 12:00,15400
3/21/1960 12:00,15400
3/22/1960 12:00,14500
3/23/1960 12:00,14400
3/24/1960 12:00,14300
3/25/1960 12:00,13700
3/26/1960 12:00,13900
3/27/1960 12:00,21900
3/28/1960 12:00,46600
3/29/1960 12:00,56000
3/30/1960 12:00,55400
3/31/1960 12:00,48900
4/1/1960 12:00,44500
4/2/1960 12:00,49500
4/3/1960 12:00,51000
4/4/1960 12:00,51900
4/5/1960 12:00,55400
4/6/1960 12:00,55100
4/7/1960 12:00,55500
4/8/1960 12:00,57500
4/9/1960 12:00,57500
4/10/1960 12:00,57400
4/11/1960 12:00,59600
4/12/1960 12:00,59000
4/13/1960 12:00,60100
4/14/1960 12:00,60700
4/15/1960 12:00,63000
4/16/1960 12:00,66000
4/17/1960 12:00,69000
4/18/1960 12:00,69500
4/19/1960 12:00,69000
4/20/1960 12:00,67500
4/21/1960 12:00,66500
4/22/1960 12:00,67500
4/23/1960 12:00,67500
4/24/1960 12:00,67500
4/25/1960 12:00,66000
4/26/1960 12:00,64000
4/27/1960 12:00,63500
4/28/1960 12:00,64000
4/29/1960 12:00,65000
4/30/1960 12:00,67500
5/1/1960 12:00,69000
5/2/1960 12:00,70500
5/3/1960 12:00,74000
5/4/1960 12:00,71500
5/5/1960 12:00,74000
5/6/1960 12:00,72500
5/7/1960 12:00,73000
5/8/1960 12:00,74000
5/9/1960 12:00,75000
5/10/1960 12:00,75000
5/11/1960 12:00,78000
5/12/1960 12:00,80000
5/13/1960 12:00,81000
5/14/1960 12:00,82500
5/15/1960 12:00,81000
5/16/1960 12:00,79000
5/17/1960 12:00,74000
5/18/1960 12:00,72500
5/19/1960 12:00,69500
5/20/1960 12:00,67000
5/21/1960 12:00,66500
5/22/1960 12:00,67000
5/23/1960 12:00,66000
5/24/1960 12:00,68000
5/25/1960 12:00,72000
5/26/1960 12:00,76000
5/27/1960 12:00,75500
5/28/1960 12:00,76000
5/29/1960 12:00,77000
5/30/1960 12:00,77000
5/31/1960 12:00,76000
6/1/1960 12:00,77500
6/2/1960 12:00,78000
6/3/1960 12:00,79500
6/4/1960 12:00,81000
6/5/1960 12:00,82500
6/6/1960 12:00,81000
6/7/1960 12:00,77000
6/8/1960 12:00,75500
6/9/1960 12:00,71500
6/10/1960 12:00,67000
6/11/1960 12:00,63000
6/12/1960 12:00,54000
6/13/1960 12:00,50400
6/14/1960 12:00,44000
6/15/1960 12:00,37200
6/16/1960 12:00,37800
6/17/1960 12:00,38300
6/18/1960 12:00,39200
6/19/1960 12:00,41200
6/20/1960 12:00,31600
6/21/1960 12:00,30800
6/22/1960 12:00,32000
6/23/1960 12:00,31600
6/24/1960 12:00,33600
6/25/1960 12:00,32000
6/26/1960 12:00,36100
6/27/1960 12:00,32600
6/28/1960 12:00,44400
6/29/1960 12:00,47900
6/30/1960 12:00,47000
7/1/1960 12:00,38600
7/2/1960 12:00,40500
7/3/1960 12:00,45000
7/4/1960 12:00,42600
7/5/1960 12:00,40100
7/6/1960 12:00,37600
7/7/1960 12:00,30500
7/8/1960 12:00,20500
7/9/1960 12:00,20200
7/10/1960 12:00,24000
7/11/1960 12:00,22900
7/12/1960 12:00,19300
7/13/1960 12:00,19100
7/14/1960 12:00,19200
7/15/1960 12:00,21500
7/16/1960 12:00,21900
7/17/1960 12:00,21900
7/18/1960 12:00,22000
7/19/1960 12:00,21900
7/20/1960 12:00,21600
7/21/1960 12:00,20800
7/22/1960 12:00,19000
7/23/1960 12:00,16500
7/24/1960 12:00,17200
7/25/1960 12:00,14900
7/26/1960 12:00,10100
7/27/1960 12:00,12700
7/28/1960 12:00,16000
7/29/1960 12:00,19300
7/30/1960 12:00,16900
7/31/1960 12:00,11500
8/1/1960 12:00,12300
8/2/1960 12:00,11800
8/3/1960 12:00,11300
8/4/1960 12:00,11200
8/5/1960 12:00,11100
8/6/1960 12:00,11200
8/7/1960 12:00,13100
8/8/1960 12:00,13200
8/9/1960 12:00,13200
8/10/1960 12:00,13300
8/11/1960 12:00,13200
8/12/1960 12:00,13900
8/13/1960 12:00,14100
8/14/1960 12:00,13900
8/15/1960 12:00,13900
8/16/1960 12:00,13100
8/17/1960 12:00,12500
8/18/1960 12:00,11300
8/19/1960 12:00,12300
8/20/1960 12:00,11400
8/21/1960 12:00,11400
8/22/1960 12:00,12200
8/23/1960 12:00,12200
8/24/1960 12:00,12500
8/25/1960 12:00,13100
8/26/1960 12:00,13400
8/27/1960 12:00,13200
8/28/1960 12:00,24300
8/29/1960 12:00,41900
8/30/1960 12:00,45400
8/31/1960 12:00,41100
9/1/1960 12:00,41400
9/2/1960 12:00,43500
9/3/1960 12:00,43500
9/4/1960 12:00,43500
9/5/1960 12:00,43400
9/6/1960 12:00,39600
9/7/1960 12:00,34100
9/8/1960 12:00,34400
9/9/1960 12:00,32500
9/10/1960 12:00,32000
9/11/1960 12:00,33100
9/12/1960 12:00,32400
9/13/1960 12:00,28000
9/14/1960 12:00,20100
9/15/1960 12:00,20000
9/16/1960 12:00,21600
9/17/1960 12:00,23300
9/18/1960 12:00,23100
9/19/1960 12:00,23400
9/20/1960 12:00,20700
9/21/1960 12:00,21600
9/22/1960 12:00,22400
9/23/1960 12:00,21100
9/24/1960 12:00,21100
9/25/1960 12:00,21000
9/26/1960 12:00,24000
9/27/1960 12:00,24400
9/28/1960 12:00,22100
9/29/1960 12:00,22400
9/30/1960 12:00,22800
10/1/1960 12:00,23200
10/2/1960 12:00,22700
10/3/1960 12:00,22000
10/4/1960 12:00,21900
10/5/1960 12:00,19000
10/6/1960 12:00,17100
10/7/1960 12:00,15700
10/8/1960 12:00,15200
10/9/1960 12:00,15200
10/10/1960 12:00,15300
10/11/1960 12:00,16000
10/12/1960 12:00,16000
10/13/1960 12:00,16000
10/14/1960 12:00,16100
10/15/1960 12:00,15900
10/16/1960 12:00,14800
10/17/1960 12:00,14200
10/18/1960 12:00,13600
10/19/1960 12:00,14300
10/20/1960 12:00,14200
10/21/1960 12:00,14100
10/22/1960 12:00,14200
10/23/1960 12:00,14300
10/24/1960 12:00,14200
10/25/1960 12:00,14200
10/26/1960 12:00,14900
10/27/1960 12:00,14700
10/28/1960 12:00,14700
10/29/1960 12:00,14000
10/30/1960 12:00,16100
10/31/1960 12:00,15300
11/1/1960 12:00,20600
11/2/1960 12:00,23200
11/3/1960 12:00,25300
11/4/1960 12:00,36700
11/5/1960 12:00,35200
11/6/1960 12:00,35200
11/7/1960 12:00,33700
11/8/1960 12:00,33400
11/9/1960 12:00,25600
11/10/1960 12:00,20600
11/11/1960 12:00,21500
11/12/1960 12:00,20000
11/13/1960 12:00,18000
11/14/1960 12:00,18000
11/15/1960 12:00,19400
11/16/1960 12:00,20900
11/17/1960 12:00,19700
11/18/1960 12:00,19700
11/19/1960 12:00,19600
11/20/1960 12:00,19100
11/21/1960 12:00,21400
11/22/1960 12:00,21900
11/23/1960 12:00,20500
11/24/1960 12:00,20700
11/25/1960 12:00,19500
11/26/1960 12:00,17900
11/27/1960 12:00,17800
11/28/1960 12:00,17500
11/29/1960 12:00,19300
11/30/1960 12:00,18700
12/1/1960 12:00,16700
12/2/1960 12:00,15800
12/3/1960 12:00,16500
12/4/1960 12:00,16000
12/5/1960 12:00,21500
12/6/1960 12:00,23000
12/7/1960 12:00,21300
12/8/1960 12:00,20300
12/9/1960 12:00,18600
12/10/1960 12:00,16100
12/11/1960 12:00,12100
12/12/1960 12:00,12100
12/13/1960 12:00,10700
12/14/1960 12:00,13600
12/15/1960 12:00,17000
12/16/1960 12:00,18500
12/17/1960 12:00,18700
12/18/1960 12:00,19100
12/19/1960 12:00,20300
12/20/1960 12:00,20600
12/21/1960 12:00,20300
12/22/1960 12:00,17500
12/23/1960 12:00,14300
12/24/1960 12:00,14400
12/25/1960 12:00,14400
12/26/1960 12:00,14400
12/27/1960 12:00,14200
12/28/1960 12:00,12700
12/29/1960 12:00,12800
12/30/1960 12:00,12600
12/31/1960 12:00,12400
1/1/1961 12:00,11600
1/2/1961 12:00,11600
1/3/1961 12:00,11600
1/4/1961 12:00,11700
1/5/1961 12:00,11800
1/6/1961 12:00,11800
1/7/1961 12:00,11800
1/8/1961 12:00,11700
1/9/1961 12:00,12000
1/10/1961 12:00,12900
1/11/1961 12:00,14800
1/12/1961 12:00,15500
1/13/1961 12:00,14600
1/14/1961 12:00,13900
1/15/1961 12:00,13800
1/16/1961 12:00,13800
1/17/1961 12:00,13800
1/18/1961 12:00,13800
1/19/1961 12:00,13700
1/20/1961 12:00,13200
1/21/1961 12:00,13200
1/22/1961 12:00,13300
1/23/1961 12:00,13300
1/24/1961 12:00,12500
1/25/1961 12:00,12400
1/26/1961 12:00,12400
1/27/1961 12:00,12100
1/28/1961 12:00,12000
1/29/1961 12:00,11900
1/30/1961 12:00,11900
1/31/1961 12:00,10700
2/1/1961 12:00,10700
2/2/1961 12:00,10700
2/3/1961 12:00,10700
2/4/1961 12:00,10600
2/5/1961 12:00,10600
2/6/1961 12:00,10600
2/7/1961 12:00,10600
2/8/1961 12:00,10800
2/9/1961 12:00,11700
2/10/1961 12:00,11700
2/11/1961 12:00,11700
2/12/1961 12:00,11800
2/13/1961 12:00,13100
2/14/1961 12:00,12900
2/15/1961 12:00,12700
2/16/1961 12:00,12700
2/17/1961 12:00,12900
2/18/1961 12:00,13600
2/19/1961 12:00,13500
2/20/1961 12:00,13300
2/21/1961 12:00,13700
2/22/1961 12:00,20400
2/23/1961 12:00,22000
2/24/1961 12:00,22000
2/25/1961 12:00,18000
2/26/1961 12:00,15000
2/27/1961 12:00,21400
2/28/1961 12:00,20800
3/1/1961 12:00,20600
3/2/1961 12:00,20700
3/3/1961 12:00,27200
3/4/1961 12:00,41200
3/5/1961 12:00,43100
3/6/1961 12:00,38600
3/7/1961 12:00,25300
3/8/1961 12:00,20400
3/9/1961 12:00,16000
3/10/1961 12:00,23000
3/11/1961 12:00,23000
3/12/1961 12:00,23700
3/13/1961 12:00,20500
3/14/1961 12:00,17300
3/15/1961 12:00,16900
3/16/1961 12:00,17000
3/17/1961 12:00,17700
3/18/1961 12:00,21000
3/19/1961 12:00,20100
3/20/1961 12:00,30000
3/21/1961 12:00,31700
3/22/1961 12:00,31900
3/23/1961 12:00,35500
3/24/1961 12:00,41500
3/25/1961 12:00,57700
3/26/1961 12:00,73500
3/27/1961 12:00,91000
3/28/1961 12:00,101000
3/29/1961 12:00,110000
3/30/1961 12:00,112000
3/31/1961 12:00,106000
4/1/1961 12:00,97500
4/2/1961 12:00,88000
4/3/1961 12:00,78000
4/4/1961 12:00,73000
4/5/1961 12:00,66000
4/6/1961 12:00,65000
4/7/1961 12:00,56000
4/8/1961 12:00,52000
4/9/1961 12:00,45300
4/10/1961 12:00,41000
4/11/1961 12:00,39000
4/12/1961 12:00,36200
4/13/1961 12:00,35000
4/14/1961 12:00,33900
4/15/1961 12:00,33000
4/16/1961 12:00,31700
4/17/1961 12:00,33300
4/18/1961 12:00,38300
4/19/1961 12:00,38300
4/20/1961 12:00,37900
4/21/1961 12:00,45500
4/22/1961 12:00,49600
4/23/1961 12:00,53400
4/24/1961 12:00,51700
4/25/1961 12:00,52900
4/26/1961 12:00,53700
4/27/1961 12:00,56400
4/28/1961 12:00,56100
4/29/1961 12:00,53500
4/30/1961 12:00,54000
5/1/1961 12:00,51000
5/2/1961 12:00,46400
5/3/1961 12:00,42800
5/4/1961 12:00,39100
5/5/1961 12:00,36900
5/6/1961 12:00,34800
5/7/1961 12:00,33900
5/8/1961 12:00,38400
5/9/1961 12:00,38100
5/10/1961 12:00,31400
5/11/1961 12:00,32800
5/12/1961 12:00,35100
5/13/1961 12:00,36100
5/14/1961 12:00,39400
5/15/1961 12:00,43100
5/16/1961 12:00,41600
5/17/1961 12:00,42700
5/18/1961 12:00,51600
5/19/1961 12:00,53700
5/20/1961 12:00,55000
5/21/1961 12:00,58800
5/22/1961 12:00,66000
5/23/1961 12:00,70000
5/24/1961 12:00,73000
5/25/1961 12:00,75000
5/26/1961 12:00,75000
5/27/1961 12:00,75000
5/28/1961 12:00,72500
5/29/1961 12:00,66000
5/30/1961 12:00,58000
5/31/1961 12:00,53300
6/1/1961 12:00,50000
6/2/1961 12:00,46300
6/3/1961 12:00,41100
6/4/1961 12:00,36700
6/5/1961 12:00,31100
6/6/1961 12:00,31300
6/7/1961 12:00,33800
6/8/1961 12:00,28100
6/9/1961 12:00,21700
6/10/1961 12:00,18600
6/11/1961 12:00,27100
6/12/1961 12:00,26900
6/13/1961 12:00,28000
6/14/1961 12:00,30400
6/15/1961 12:00,29400
6/16/1961 12:00,23300
6/17/1961 12:00,20000
6/18/1961 12:00,20100
6/19/1961 12:00,23100
6/20/1961 12:00,20000
6/21/1961 12:00,17500
6/22/1961 12:00,19500
6/23/1961 12:00,18900
6/24/1961 12:00,18500
6/25/1961 12:00,17700
6/26/1961 12:00,18200
6/27/1961 12:00,18200
6/28/1961 12:00,18300
6/29/1961 12:00,18300
6/30/1961 12:00,17000
7/1/1961 12:00,17000
7/2/1961 12:00,17300
7/3/1961 12:00,17300
7/4/1961 12:00,17300
7/5/1961 12:00,17300
7/6/1961 12:00,16700
7/7/1961 12:00,15500
7/8/1961 12:00,14500
7/9/1961 12:00,14000
7/10/1961 12:00,13200
7/11/1961 12:00,12300
7/12/1961 12:00,10900
7/13/1961 12:00,9700
7/14/1961 12:00,9700
7/15/1961 12:00,9700
7/16/1961 12:00,9700
7/17/1961 12:00,9700
7/18/1961 12:00,9700
7/19/1961 12:00,11200
7/20/1961 12:00,11900
7/21/1961 12:00,12000
7/22/1961 12:00,13600
7/23/1961 12:00,16600
7/24/1961 12:00,18300
7/25/1961 12:00,18100
7/26/1961 12:00,17400
7/27/1961 12:00,17400
7/28/1961 12:00,17500
7/29/1961 12:00,15000
7/30/1961 12:00,20100
7/31/1961 12:00,19200
8/1/1961 12:00,20400
8/2/1961 12:00,20500
8/3/1961 12:00,16700
8/4/1961 12:00,17000
8/5/1961 12:00,16500
8/6/1961 12:00,17900
8/7/1961 12:00,17600
8/8/1961 12:00,17000
8/9/1961 12:00,16300
8/10/1961 12:00,16300
8/11/1961 12:00,16000
8/12/1961 12:00,14500
8/13/1961 12:00,13600
8/14/1961 12:00,15000
8/15/1961 12:00,14900
8/16/1961 12:00,13000
8/17/1961 12:00,11100
8/18/1961 12:00,10200
8/19/1961 12:00,10300
8/20/1961 12:00,11400
8/21/1961 12:00,10900
8/22/1961 12:00,10900
8/23/1961 12:00,10900
8/24/1961 12:00,10900
8/25/1961 12:00,10900
8/26/1961 12:00,10900
8/27/1961 12:00,10800
8/28/1961 12:00,12300
8/29/1961 12:00,12200
8/30/1961 12:00,12100
8/31/1961 12:00,12100
9/1/1961 12:00,11100
9/2/1961 12:00,12100
9/3/1961 12:00,12400
9/4/1961 12:00,12300
9/5/1961 12:00,10800
9/6/1961 12:00,10800
9/7/1961 12:00,10700
9/8/1961 12:00,12400
9/9/1961 12:00,13000
9/10/1961 12:00,13200
9/11/1961 12:00,15700
9/12/1961 12:00,18400
9/13/1961 12:00,24000
9/14/1961 12:00,15300
9/15/1961 12:00,9500
9/16/1961 12:00,9500
9/17/1961 12:00,9800
9/18/1961 12:00,10600
9/19/1961 12:00,11500
9/20/1961 12:00,11300
9/21/1961 12:00,11600
9/22/1961 12:00,17100
9/23/1961 12:00,16700
9/24/1961 12:00,16700
9/25/1961 12:00,13800
9/26/1961 12:00,11300
9/27/1961 12:00,10600
9/28/1961 12:00,9800
9/29/1961 12:00,12000
9/30/1961 12:00,17400
10/1/1961 12:00,17300
10/2/1961 12:00,13000
10/3/1961 12:00,12600
10/4/1961 12:00,12700
10/5/1961 12:00,12900
10/6/1961 12:00,13300
10/7/1961 12:00,13400
10/8/1961 12:00,13400
10/9/1961 12:00,13400
10/10/1961 12:00,13000
10/11/1961 12:00,18700
10/12/1961 12:00,20500
10/13/1961 12:00,19400
10/14/1961 12:00,17500
10/15/1961 12:00,15700
10/16/1961 12:00,14100
10/17/1961 12:00,14100
10/18/1961 12:00,15000
10/19/1961 12:00,17200
10/20/1961 12:00,16900
10/21/1961 12:00,14000
10/22/1961 12:00,14000
10/23/1961 12:00,14100
10/24/1961 12:00,14100
10/25/1961 12:00,14200
10/26/1961 12:00,14200
10/27/1961 12:00,13800
10/28/1961 12:00,14000
10/29/1961 12:00,18000
10/30/1961 12:00,18500
10/31/1961 12:00,17000
11/1/1961 12:00,18900
11/2/1961 12:00,24600
11/3/1961 12:00,24100
11/4/1961 12:00,23700
11/5/1961 12:00,22000
11/6/1961 12:00,24100
11/7/1961 12:00,25800
11/8/1961 12:00,23500
11/9/1961 12:00,24100